Погода в Сассари

Италия     40°43′14″N   8°33′50″E
темп.,
°C
ветер,
м/с
пор.,
м/с
влажн.,
%
обл.,
%
осадки,
мм/ч
давл.,
гПа
погр.,
м
24 мая, вт
вт2423:00+18ю35694 0.0 1009115
02:00+17ю368815 0.0 1008159
05:00+17ююз359230 0.0 1008191
08:00+21ююз4679100 0.0 1009493
11:00+26з45535 0.0 1009899
14:00+27сз444743 0.0 10091218
17:00+26ссз43528 0.0 1008955
20:00+21с34745 0.0 1009318
25 мая, ср
ср2523:00+18всв23895 0.0 101074
02:00+17вюв228625 0.0 100949
05:00+16юв22810 0.0 100929
08:00+21вюв1257100 0.0 1010142
11:00+27сз2239100 0.0 1011991
14:00+28сз5443100 0.0 10111084
17:00+27сз3347100 0.0 10111044
20:00+22ссв2376100 0.1 1014148
26 мая, чт
чт2623:00+20св1190100 0.0 101622
02:00+19ссв2394100 0.0 101691
05:00+18в2292100 0.0 101652
08:00+20св2484100 0.1 1017197
11:00+26св6950100 0.0 1015743
14:00+31ююв373192 0.0 10142033
17:00+29юз7936100 0.0 10141418
20:00+23юз46605 0.0 1015381
27 мая, пт
пт2723:00+19ю3486100 0.0 1017100
02:00+19юв3788100 0.5 1017303
05:00+17зюз348872 0.8 1016136
08:00+21юв51556100 0.8 1015910
11:00+27вюв5103327 0.0 10151871
14:00+28сз343499 0.0 10141844
17:00+24сз5555100 0.0 1014524
20:00+23с4762100 0.0 1013234
28 мая, сб
сб2823:00+20ссв23757 0.0 101466
02:00+18ссв22875 0.0 101235
05:00+18в127340 0.0 101123
08:00+22ссв11545 0.0 1011142
11:00+28с46325 0.0 1010937
14:00+27ссз674145 0.0 1010832
17:00+25ссз565655 0.0 1009633
20:00+22с23730 0.0 1009271